Waarnemingen

Advertentie
Mijn weer
Lossiemouth, Groot Brittannië (3068): temperatuur & dauwpunt: 11.10.2018 21:00:00 - 17.10.2018 21:00:00 (BST)Lossiemouth, Groot Brittannië (3068): windsnelheid & windstoten: 11.10.2018 21:00:00 - 17.10.2018 21:00:00 (BST)Lossiemouth, Groot Brittannië (3068): windrichting: 11.10.2018 21:00:00 - 17.10.2018 21:00:00 (BST)Lossiemouth, Groot Brittannië (3068): luchtdruk: 11.10.2018 21:00:00 - 17.10.2018 21:00:00 (BST)Lossiemouth, Groot Brittannië (3068): zicht: 11.10.2018 21:00:00 - 17.10.2018 21:00:00 (BST)Lossiemouth, Groot Brittannië (3068): neerslag: 11.10.2018 21:00:00 - 17.10.2018 21:00:00 (BST)
Datum & Tijd tt [°C] td [°C] ff [km/u] ff [kn] fx [km/u] fx [kn] dd ppp [hPa] vv [km] rr [mm]
17.10.2018 21:00:00 6,3 4,2 15 8 - - WZW 1022,9 10 0,0
17.10.2018 20:00:00 6,9 3,8 16 9 - - WZW 1021,8 35 0,0
17.10.2018 19:00:00 7,4 4,1 15 8 - - WZW 1020,8 10 0,0
17.10.2018 18:00:00 9,9 4,6 24 13 - - W 1019,6 10 0,0
17.10.2018 17:00:00 11,2 3,9 28 15 46 25 W 1018,6 10 0,0
17.10.2018 16:00:00 11,9 3,9 31 17 48 26 W 1017,8 10 0,0
17.10.2018 15:00:00 12,2 4,9 26 14 - - W 1017,1 10 0,0
17.10.2018 14:00:00 12,5 3,8 28 15 46 25 W 1016,6 40 0,0
17.10.2018 13:00:00 12,5 4,2 26 14 - - W 1016,2 10 0,0
17.10.2018 12:00:00 12,1 5,7 24 13 - - WZW 1015,3 10 0,0
17.10.2018 11:00:00 11,2 5,9 18 10 - - WZW 1014,9 10 0,0
17.10.2018 10:00:00 10,8 7,4 13 7 - - WZW 1014,0 40 0,0
17.10.2018 09:00:00 9,4 6,7 15 8 - - ZW 1012,9 10 0,0
17.10.2018 08:00:00 9,1 6,1 15 8 - - ZW 1011,7 10 0,0
17.10.2018 07:00:00 8,6 6,4 8 4 - - ZW 1010,6 10 0,0
17.10.2018 06:00:00 7,9 5,1 11 6 - - ZW 1009,6 10 0,0
17.10.2018 05:00:00 9,2 5,8 16 9 - - ZW 1009,0 10 0,0
17.10.2018 04:00:00 9,3 5,5 15 8 - - ZW 1008,3 10 0,0
17.10.2018 03:00:00 10,4 6,2 21 11 - - ZW 1007,8 10 0,0
17.10.2018 02:00:00 8,6 6,3 13 7 - - WZW 1007,0 10 0,0
17.10.2018 01:00:00 11,0 8,0 21 11 - - WZW 1006,2 10 0,0
17.10.2018 00:00:00 11,1 7,6 18 10 - - ZW 1005,6 10 0,0
16.10.2018 23:00:00 12,1 7,6 22 12 - - ZZW 1005,4 10 0,0
16.10.2018 22:00:00 12,2 7,3 24 13 - - ZW 1005,3 10 0,0
16.10.2018 21:00:00 11,2 6,6 18 10 - - ZW 1005,1 10 0,0
16.10.2018 20:00:00 13,0 7,1 28 15 - - ZZW 1004,4 40 0,0
16.10.2018 19:00:00 12,8 6,8 24 13 - - ZZW 1004,0 10 0,0
16.10.2018 18:00:00 13,1 7,8 18 10 - - ZZW 1003,8 10 0,0
16.10.2018 17:00:00 14,5 9,0 24 13 48 26 ZW 1003,6 10 0,0
16.10.2018 16:00:00 14,6 8,7 37 20 54 29 ZZW 1003,2 10 0,0
16.10.2018 15:00:00 14,6 7,7 34 18 54 29 ZW 1003,5 10 0,0
16.10.2018 14:00:00 14,6 6,5 31 17 52 28 ZZW 1003,1 10 0,0
16.10.2018 13:00:00 14,2 5,7 24 13 - - Z 1003,5 10 0,0
16.10.2018 12:00:00 12,7 5,7 13 7 - - ZZW 1004,2 10 0,0
16.10.2018 11:00:00 12,4 6,0 26 14 46 25 ZZW 1004,9 10 0,0
16.10.2018 10:00:00 10,4 5,5 21 11 - - ZZO 1005,7 10 0,0
16.10.2018 09:00:00 9,7 4,7 5 3 - - N 1007,0 10 0,0
16.10.2018 08:00:00 9,6 4,6 15 8 - - ZZO 1007,0 40 0,0
16.10.2018 07:00:00 9,9 4,3 28 15 - - Z 1007,4 10 0,0
16.10.2018 06:00:00 8,2 3,2 5 3 - - ZZO 1008,4 10 0,0
16.10.2018 05:00:00 9,2 3,8 9 5 - - ZO 1009,0 10 0,0
16.10.2018 04:00:00 9,6 3,5 13 7 - - ZO 1010,1 10 0,0
16.10.2018 03:00:00 8,8 3,7 9 5 - - OZO 1011,2 10 0,0
16.10.2018 02:00:00 8,3 3,7 16 9 - - ZZO 1011,6 10 0,0
16.10.2018 01:00:00 6,9 3,5 11 6 - - ZZO 1012,4 10 0,0
16.10.2018 00:00:00 8,6 4,6 16 9 - - ZO 1013,0 10 0,0
15.10.2018 23:00:00 7,9 4,7 13 7 - - ZZO 1013,6 50 0,0
15.10.2018 22:00:00 7,3 4,9 16 9 - - Z 1014,2 10 0,0
15.10.2018 21:00:00 7,7 4,8 13 7 - - ZO 1014,0 10 0,0
15.10.2018 20:00:00 8,1 5,8 11 6 - - Z 1014,4 10 0,0
15.10.2018 19:00:00 9,4 5,6 9 5 - - ZO 1014,3 10 0,0
15.10.2018 18:00:00 11,0 5,8 5 3 - - Z 1014,0 10 0,0
15.10.2018 17:00:00 12,7 6,0 8 4 - - W 1013,7 10 0,0
15.10.2018 16:00:00 14,4 5,1 13 7 - - W 1013,8 10 0,0
15.10.2018 15:00:00 14,2 4,9 15 8 - - WZW 1013,7 10 0,0
15.10.2018 14:00:00 14,1 5,3 15 8 - - ZW 1013,9 40 0,0
15.10.2018 13:00:00 13,2 5,0 24 13 - - ZW 1013,9 10 0,0
15.10.2018 12:00:00 12,1 5,5 21 11 - - ZW 1014,0 10 0,0
15.10.2018 11:00:00 10,9 4,9 16 9 - - ZZW 1014,1 10 0,0
15.10.2018 10:00:00 7,4 3,9 16 9 - - ZZW 1014,1 10 0,0
15.10.2018 09:00:00 6,9 3,8 15 8 - - ZW 1013,2 10 0,0
15.10.2018 08:00:00 5,8 3,5 11 6 - - ZZO 1013,0 10 0,0
15.10.2018 07:00:00 6,3 3,5 9 5 - - OZO 1012,5 10 0,0
15.10.2018 06:00:00 5,4 3,2 8 4 - - Z 1012,0 10 0,0
15.10.2018 05:00:00 6,3 3,5 9 5 - - O 1012,1 45 0,0
15.10.2018 04:00:00 5,9 3,7 13 7 - - ZZO 1012,1 10 0,0
15.10.2018 03:00:00 5,7 3,1 9 5 - - Z 1012,3 10 0,0
15.10.2018 02:00:00 4,7 2,7 9 5 - - Z 1012,1 10 0,0
15.10.2018 01:00:00 5,0 2,9 11 6 - - ZO 1011,9 10 0,0
15.10.2018 00:00:00 4,8 2,8 5 3 - - Z 1011,6 10 0,0
14.10.2018 23:00:00 4,2 2,6 5 3 - - ZZW 1011,4 10 0,0
14.10.2018 22:00:00 5,3 2,8 13 7 - - ZO 1011,0 10 0,0
14.10.2018 21:00:00 4,7 3,7 4 2 - - ZZO 1010,5 10 0,0
14.10.2018 20:00:00 4,3 3,0 5 3 - - Z 1009,9 10 0,0
14.10.2018 19:00:00 6,3 4,7 5 3 - - ZZO 1009,3 50 0,0
14.10.2018 18:00:00 10,5 6,1 8 4 - - OZO 1008,7 10 0,0
14.10.2018 17:00:00 11,0 6,4 5 3 - - NNO 1008,1 10 0,0
14.10.2018 16:00:00 12,5 4,5 8 4 - - ZW 1008,0 10 0,0
14.10.2018 15:00:00 12,3 5,8 11 6 - - WZW 1008,1 10 0,0
14.10.2018 14:00:00 10,7 6,5 15 8 - - WZW 1007,6 10 0,0
14.10.2018 13:00:00 9,4 6,3 8 4 - - WZW 1007,7 10 0,0
14.10.2018 12:00:00 8,7 6,6 9 5 - - ZW 1007,8 10 0,0
14.10.2018 11:00:00 7,7 6,4 8 4 - - Z 1007,1 10 0,0
14.10.2018 10:00:00 7,4 6,3 4 2 - - Z 1007,0 10 0,0
14.10.2018 09:00:00 6,3 5,4 5 3 - - ZW 1006,1 45 0,0
14.10.2018 08:00:00 7,1 6,2 15 8 - - WZW 1005,7 10 0,0
14.10.2018 07:00:00 6,5 5,9 11 6 - - ZW 1004,9 30 0,0
14.10.2018 06:00:00 7,5 6,3 11 6 - - W 1004,0 10 0,0
14.10.2018 05:00:00 7,9 6,6 24 13 - - WNW 1002,9 10 0,2
14.10.2018 04:00:00 8,1 7,6 26 14 - - WNW 1001,4 3,0 0,8
14.10.2018 03:00:00 8,6 8,0 24 13 - - W 1000,0 5 0,2
14.10.2018 02:00:00 8,7 8,2 24 13 - - W 999,1 3,0 0,6
14.10.2018 01:00:00 8,9 8,6 28 15 - - W 997,2 2,0 2,2
14.10.2018 00:00:00 9,6 9,1 31 17 - - WNW 995,9 2,0 0,4
13.10.2018 23:00:00 10,2 9,9 26 14 - - NW 994,4 1,8 0,6
13.10.2018 22:00:00 10,8 10,5 31 17 - - N 993,3 3,0 0,6
13.10.2018 21:00:00 10,6 10,4 24 13 - - N 993,7 2,0 1,6
13.10.2018 20:00:00 10,4 10,1 31 17 - - NNO 994,0 2,0 1,6
13.10.2018 19:00:00 10,3 10,0 22 12 - - NO 995,5 1,2 3,8
13.10.2018 18:00:00 10,3 9,9 22 12 - - NO 995,8 2,0 3,8
13.10.2018 17:00:00 10,4 9,9 16 9 - - NO 996,5 3,0 1,4
13.10.2018 16:00:00 10,3 9,5 11 6 - - NO 997,9 8 0,6
13.10.2018 15:00:00 10,3 9,1 5 3 - - ONO 998,8 10 1,0
13.10.2018 14:00:00 10,4 9,5 8 4 - - O 999,9 7 1,8
13.10.2018 13:00:00 10,6 9,5 9 5 - - ZO 1001,1 7 0,6
13.10.2018 12:00:00 11,5 8,0 9 5 - - OZO 1001,7 9 0,2
13.10.2018 11:00:00 11,9 7,6 8 4 - - OZO 1001,3 30 0,0
13.10.2018 10:00:00 11,8 7,3 11 6 - - Z 1001,5 10 0,0
13.10.2018 09:00:00 11,2 7,2 13 7 - - Z 1001,5 10 0,0
13.10.2018 08:00:00 10,7 7,0 8 4 - - ZZW 1001,2 10 0,0
13.10.2018 07:00:00 10,5 6,8 9 5 - - Z 1000,5 10 0,0
13.10.2018 06:00:00 10,6 6,5 15 8 - - ZZW 1000,1 10 0,0
13.10.2018 05:00:00 11,8 7,1 22 12 - - ZZW 998,7 10 0,0
13.10.2018 04:00:00 11,9 6,7 24 13 - - ZW 998,4 10 0,0
13.10.2018 03:00:00 12,2 6,6 35 19 54 29 ZW 996,8 10 0,0
13.10.2018 02:00:00 12,7 6,6 35 19 59 32 ZW 995,7 10 0,0
13.10.2018 01:00:00 13,2 6,9 41 22 67 36 ZZW 994,0 10 0,0
13.10.2018 00:00:00 13,3 6,7 48 26 68 37 ZZW 992,4 35 0,0
12.10.2018 23:00:00 13,5 6,5 42 23 72 39 ZZW 990,9 35 0,0
12.10.2018 22:00:00 13,4 6,5 37 20 63 34 ZZW 990,0 10 0,0
12.10.2018 21:00:00 13,1 7,9 31 17 50 27 ZZW 989,2 10 0,0
12.10.2018 20:00:00 13,0 8,5 29 16 - - ZZW 988,4 10 0,0
12.10.2018 19:00:00 11,7 9,4 5 3 - - Z 987,5 10 0,2
12.10.2018 18:00:00 12,5 10,7 5 3 - - ZZW 987,2 10 0,2
12.10.2018 17:00:00 12,6 10,5 15 8 - - ZZO 987,3 10 0,4
12.10.2018 16:00:00 13,6 9,5 26 14 72 39 Z 989,0 10 0,0
12.10.2018 15:00:00 16,3 6,5 42 23 68 37 Z 989,1 10 0,0
12.10.2018 14:00:00 16,0 7,5 28 15 70 38 ZZW 989,6 10 0,0
12.10.2018 13:00:00 15,9 8,8 29 16 54 29 ZZW 989,7 10 0,0
12.10.2018 12:00:00 14,7 9,4 18 10 - - Z 989,4 10 0,0
12.10.2018 11:00:00 13,6 10,0 26 14 67 36 ZZW 989,1 10 0,0
12.10.2018 10:00:00 13,2 9,4 46 25 68 37 ZZO 988,0 10 0,0
12.10.2018 09:00:00 11,5 7,3 42 23 61 33 ZZO 989,0 10 0,0
12.10.2018 08:00:00 10,8 7,8 24 13 - - OZO 991,6 10 0,0
12.10.2018 07:00:00 10,0 7,0 39 21 54 29 ZO 992,9 10 0,0
12.10.2018 06:00:00 9,2 7,3 28 15 - - ZZO 994,2 10 0,0
12.10.2018 05:00:00 9,1 7,5 11 6 - - OZO 995,0 10 0,0
12.10.2018 04:00:00 8,9 8,2 16 9 - - ZO 997,7 10 0,0
12.10.2018 03:00:00 8,6 7,8 11 6 - - OZO 998,3 10 0,0
12.10.2018 02:00:00 7,5 7,1 9 5 - - ZZO 998,8 10 0,0
12.10.2018 01:00:00 7,4 6,1 9 5 - - WZW 999,0 10 0,0
12.10.2018 00:00:00 10,5 8,5 15 8 - - ZW 999,0 10 0,0
11.10.2018 23:00:00 11,6 10,4 8 4 - - ZZW 998,6 10 1,4
11.10.2018 22:00:00 12,9 10,7 21 11 - - W 998,2 7 0,4
11.10.2018 21:00:00 15,7 10,5 16 9 - - Z 996,9 10 0,0

tt = temperatuur
td = dauwpunt
ff = windsnelheid
fx = windstoten
dd = windrichting
ppp = luchtdruk
vv = zicht
rr = neerslag

Weerstations in de omgeving